This is the latest recevied weather packets stored in our database for station/object ZS2JO. If no packets are shown the sender has not sent any weather packets the latest 10 day(s).
| Time | Temp. | Humidity | Pressure | Rain* | Wind** | Luminosity | Snow |
|---|---|---|---|---|---|---|---|
| 1778259644 | 12.78° C | 93% | 1020.5 hPa | 0 mm | - | 0 W/m² | - |
| 1778259341 | 12.78° C | 93% | 1020.4 hPa | 0 mm | - | 0 W/m² | - |
| 1778259038 | 12.78° C | 92% | 1020.4 hPa | 0 mm | - | 0 W/m² | - |
| 1778258734 | 12.78° C | 92% | 1020.6 hPa | 0 mm | - | 0 W/m² | - |
| 1778258431 | 12.78° C | 92% | 1020.2 hPa | 0 mm | - | 0 W/m² | - |
| 1778258129 | 12.78° C | 92% | 1020.2 hPa | 0 mm | - | 0 W/m² | - |
| 1778257825 | 12.78° C | 92% | 1020.4 hPa | 0 mm | - | 0 W/m² | - |
| 1778257522 | 12.78° C | 91% | 1020.7 hPa | 0 mm | - | 0 W/m² | - |
| 1778257220 | 12.78° C | 90% | 1020.3 hPa | 0 mm | - | 0 W/m² | - |
| 1778256916 | 12.78° C | 89% | 1020.5 hPa | 0 mm | - | 0 W/m² | - |
| 1778256613 | 13.33° C | 89% | 1020.5 hPa | 0 mm | - | 0 W/m² | - |
| 1778256312 | 13.33° C | 90% | 1020.5 hPa | 0 mm | - | 0 W/m² | - |
| 1778256008 | 13.33° C | 92% | 1020.5 hPa | 0 mm | - | 0 W/m² | - |
| 1778255705 | 13.33° C | 93% | 1020.4 hPa | 0 mm | - | 0 W/m² | - |
| 1778255402 | 13.33° C | 94% | 1020.6 hPa | 0 mm | - | 0 W/m² | - |
| 1778255100 | 13.89° C | 94% | 1020.6 hPa | 0 mm | - | 0 W/m² | - |
| 1778254796 | 13.89° C | 92% | 1020.5 hPa | 0 mm | - | 1 W/m² | - |
| 1778254493 | 13.89° C | 89% | 1020.6 hPa | 0 mm | - | 3 W/m² | - |
| 1778254189 | 14.44° C | 89% | 1020.5 hPa | 0 mm | - | 5 W/m² | - |
| 1778253886 | 14.44° C | 88% | 1020.6 hPa | 0 mm | - | 7 W/m² | - |
| 1778253582 | 14.44° C | 88% | 1020.6 hPa | 0 mm | - | 10 W/m² | - |
| 1778253279 | 14.44° C | 88% | 1020.5 hPa | 0 mm | - | 14 W/m² | - |
| 1778252976 | 15° C | 88% | 1020.7 hPa | 0 mm | - | 19 W/m² | - |
| 1778252672 | 15° C | 87% | 1020.7 hPa | 0 mm | - | 24 W/m² | - |
| 1778252368 | 15° C | 87% | 1020.6 hPa | 0 mm | - | 27 W/m² | - |
* Rain latest hour (hover to see other rain measurements)
** Current wind speed in m/s (hover to see current wind gust speed)